sat.trackr.live / text

‹ back to catalog

STARLINK-35145

NORAD 65685 · 2025-212K

PAYLOAD ACTIVE UNKNOWN

§ Identity

Operator
Country
US
Launch date
2025-09-21
Launch site
AFETR
Launch vehicle
Mass (kg)
RCS (m²)

Purposes: comms

External: N2YO · Heavens-Above · Gunter

§ Orbital elements

Epoch: 2026-09-20T05:12:10.732032Z

Period
93.85 min
Inclination
53.1589°
Eccentricity
0.0001229
Mean motion
15.34413617 rev/d
Perigee alt
461.8 km
Apogee alt
463.5 km
Semi-major
6,840.8 km
B*
6.2318e-4
RAAN
158.7767°
Arg perigee
95.0742°
Mean anomaly
265.0401°
Rev number
5,702

§ Raw data

STARLINK-351451 65685U 25212K   26263.21679088  .00020746  00000+0  62318-3 0  99932 65685  53.1589 158.7767 0001229  95.0742 265.0401 15.34413617 57022

JSON: /api/v1/satellites/65685 · /tle

For live sub-satellite position, see the globe view (requires WebGL).

§ Visibility from observer

Set your observer location to see the next 7 days of passes ≥ 10°. The values pass through the URL so the page stays shareable.

No JS? Fill the form by hand. The geolocation button needs JavaScript.